User: anonymous   Login
Location: Reutlingen
(48.4911°N, 9.2587°E)
Time: 03:52:00
(UTC+01:00)
Language:

ISS - Orbit

View from above orbital plane
View from above orbital plane
View from above satellite
View from above satellite

Ground track
Ground track

The orbit data is extracted from the following two-line orbital elements,

1 25544U 98067A   17325.57334014  .00016717  00000-0  10270-3 0  9013
2 25544  51.6383 333.7328 0004005 136.7508 223.3960 15.54175550  6229
Epoch (UTC): 21 November 2017 13:45:36
Eccentricity: 0.0004005
inclination: 51.6383°
perigee height: 402 km
apogee height: 407 km
right ascension of ascending node: 333.7328°
argument of perigee: 136.7508°
revolutions per day: 15.54175550
mean anomaly at epoch: 223.3960°
orbit number at epoch: 622

The dashed part of the orbit path shows where the satellite is in the earth's shadow,  

DLR